Location: Windsor
(43.2292°N, 89.3015°W)
Time: 07:18:02
(UTC+00:00)

RS-44 - Pass Details

Date: 28 June 2022
Orbit: 1175 x 1510 km, 82.5° (Epoch: 14 August)

Event Time Altitude Azimuth Distance (km) Brightness Sun altitude
Rises 03:19:25 0° 202° (SSW) 4,273 ? -13.9°
Reaches altitude 10° 03:22:09 10° 206° (SSW) 3,350 ? -14.2°
Maximum altitude 03:29:59 57° 284° (WNW) 1,618 ? -15.0°
Drops below altitude 10° 03:38:28 10° 2° (N) 3,602 ? -15.9°
Sets 03:41:32 0° 7° (N) 4,615 ? -16.2°
